Wind_Speed
12 12 12 11 10 10 10 10 10 10 11 11 12 14 16 17 16 11 12 6 5 13 16 17 10 1 11 6 1 9 4 8 13 12 11 4 11 8 3 8 9 1 11 21 27
13 13 13 12 12 10 10 10 10 10 10 10 11 13 14 18 16 16 0 6 9 10 11 9 6 7 6 5 0 9 8 8 7 13 10 7 8 3 3 6 12 11 13 22 27
13 12 12 13 12 11 10 10 9 9 9 10 11 12 13 16 12 4 6 3 5 8 13 12 10 11 6 6 6 8 8 7 6 10 5 6 7 2 6 14 12 13 14 18 23
14 13 12 12 12 12 10 9 9 8 9 9 10 12 13 8 6 9 5 3 4 8 12 11 8 11 4 3 2 12 8 5 4 5 2 5 4 7 7 7 9 14 17 18 18
15 13 12 11 11 11 10 9 8 7 8 8 8 11 8 10 7 4 5 2 7 9 8 7 8 7 6 3 4 8 4 5 6 1 1 6 0 6 3 8 11 15 16 17 16
15 14 12 10 10 10 9 8 7 6 6 7 7 8 7 15 5 6 2 5 8 9 5 7 5 9 6 3 7 2 2 5 5 4 1 3 3 1 9 9 13 15 16 15 16
16 14 11 10 9 9 8 6 6 5 6 5 5 6 11 10 3 7 5 7 4 9 8 0 8 13 3 9 3 7 10 4 8 6 4 6 10 6 10 9 12 13 14 15 15
17 14 11 9 8 8 7 6 5 5 5 4 4 7 11 10 7 8 10 11 8 7 9 4 8 12 12 0 10 10 7 3 10 2 5 9 1 11 10 7 11 12 12 13 16
18 15 11 8 8 7 6 5 4 4 4 4 6 10 12 10 13 15 12 12 12 8 7 6 14 12 7 15 13 6 6 5 4 3 5 4 10 6 4 8 6 11 16 13 14
18 15 11 7 6 7 6 5 3 4 5 6 11 8 10 14 16 8 12 7 10 11 11 13 12 13 11 11 9 8 8 4 2 4 8 11 7 6 7 11 9 9 13 14 15
18 15 10 4 7 10 9 5 6 7 15 9 10 11 4 3 4 12 14 15 11 11 15 13 12 13 9 9 8 5 9 9 4 3 5 11 10 8 7 3 7 9 12 17 16
19 15 8 4 10 13 7 14 9 8 11 17 5 9 5 4 10 15 13 14 15 16 16 11 13 5 5 4 9 9 8 6 3 3 8 9 8 5 3 2 3 6 11 15 16
20 13 5 5 10 10 13 11 3 5 7 16 11 13 10 10 11 15 15 17 15 17 17 13 8 9 5 11 9 15 2 10 10 10 14 8 9 8 8 4 6 5 10 13 15
20 11 0 10 6 12 15 11 7 5 6 13 11 10 8 10 6 16 20 13 11 18 12 17 17 2 9 11 10 14 10 8 10 13 4 2 3 9 10 12 10 11 12 13 15
20 8 7 16 9 11 6 4 6 5 7 15 15 11 11 12 15 9 16 7 11 11 6 11 12 9 12 14 4 12 7 8 9 12 13 9 5 7 15 11 8 7 3 6 14
19 6 10 8 7 4 3 4 7 7 4 10 11 13 14 12 10 13 11 10 7 7 11 17 3 10 14 10 5 10 10 15 11 11 9 5 6 3 7 9 6 3 2 2 6
14 5 20 5 2 3 5 7 7 9 16 12 16 18 17 11 10 15 16 16 10 9 13 16 16 12 14 15 14 10 17 9 9 7 5 7 8 10 9 9 9 5 7 6 1
5 9 13 11 3 4 7 9 12 9 14 16 14 16 13 13 13 15 14 14 15 11 14 9 16 19 19 13 19 14 15 8 5 6 8 5 4 4 6 5 7 6 11 7 8
6 6 10 10 10 6 8 11 3 9 7 12 16 15 12 12 5 12 15 14 13 12 14 6 5 4 3 10 12 9 8 10 11 7 6 2 6 7 8 5 7 6 13 8 10
5 11 12 9 10 9 8 14 3 8 6 8 13 13 13 15 10 11 12 11 8 9 15 2 4 8 9 7 10 15 10 7 5 2 8 6 4 9 7 5 7 6 9 9 8
7 6 8 10 9 7 10 4 3 6 7 8 10 10 10 14 16 14 14 5 9 13 10 13 10 8 7 10 11 9 12 9 8 8 8 9 7 7 5 7 4 6 9 4 9
10 4 14 13 8 10 12 2 4 5 8 6 8 7 9 14 14 12 4 2 4 5 12 13 9 10 14 7 5 12 14 11 9 6 9 7 5 10 8 7 5 5 3 8 7
4 6 11 13 7 9 10 7 7 7 8 9 10 7 3 7 7 6 6 9 2 9 4 3 9 13 12 14 12 10 15 11 15 12 12 9 4 7 7 2 6 8 8 2 1
5 5 6 8 13 13 13 13 12 6 4 5 2 6 7 4 5 6 6 3 3 5 9 4 15 18 12 3 12 8 9 9 13 12 14 14 18 4 4 4 6 7 10 10 4
5 1 6 9 12 12 7 11 12 9 9 8 7 14 14 9 9 8 8 8 6 6 5 8 13 16 13 9 6 15 16 14 13 14 15 18 18 14 10 9 7 6 7 5 2
5 4 4 6 6 11 7 10 14 10 6 13 10 10 4 6 1 5 2 2 5 10 11 9 12 11 14 16 19 16 16 17 17 18 17 16 15 8 10 4 3 2 5 1 3
8 7 5 5 8 9 11 15 13 3 3 11 8 7 8 9 7 6 5 6 4 7 10 7 12 13 16 14 19 15 15 12 14 11 11 14 5 6 1 1 2 1 2 2 2
Wind_Direction
306 299 297 294 290 292 294 299 305 311 316 319 321 323 322 320 313 280 248 1 310 299 301 281 250 241 224 138 157 229 53 71 70 100 102 143 93 74 48 83 61 340 72 147 151
314 302 291 287 287 285 289 294 299 306 312 313 317 321 320 321 307 262 248 287 279 294 300 329 332 263 176 158 90 73 62 67 69 82 96 97 70 64 184 133 107 90 96 136 155
321 309 293 282 279 280 284 289 295 302 308 312 316 318 315 321 275 142 139 203 278 295 285 294 272 277 156 292 20 44 61 91 77 54 65 94 131 238 155 42 65 124 140 155 159
325 313 295 283 275 275 275 281 291 299 306 311 316 315 309 295 223 80 127 188 274 305 281 276 256 240 263 103 63 106 68 38 43 86 134 46 70 77 24 70 67 110 147 161 169
328 319 301 285 272 268 268 273 282 291 300 307 317 321 316 230 257 111 150 245 270 277 284 315 306 292 276 357 145 5 44 125 127 261 281 77 5 17 152 125 109 123 153 164 176
332 323 307 285 269 262 259 264 274 282 291 303 314 313 253 254 92 148 183 221 247 252 247 290 6 333 317 43 1 83 270 297 114 125 224 292 323 287 112 134 128 143 157 170 179
335 329 311 286 263 252 249 252 259 268 283 296 302 312 263 261 202 191 224 236 250 272 256 280 328 284 293 154 59 285 259 185 71 50 327 310 228 174 103 150 151 161 168 171 181
338 332 316 286 255 239 235 236 241 257 272 274 272 275 260 206 221 227 232 232 226 238 276 320 303 283 273 309 205 247 237 269 95 277 122 278 328 113 134 174 164 176 167 176 182
339 333 320 282 242 219 212 214 226 247 252 243 260 229 248 153 211 219 218 231 201 217 232 282 264 285 185 239 206 211 152 40 132 147 298 227 317 108 159 164 202 174 168 185 179
340 336 324 281 222 192 183 182 215 205 231 238 265 250 246 208 200 198 205 251 221 213 219 231 244 231 223 247 23 49 337 66 286 47 329 296 270 252 230 172 190 189 179 186 183
340 336 323 255 186 170 156 169 195 194 210 208 187 238 120 81 197 215 201 211 232 218 225 197 256 237 48 28 340 303 289 317 311 344 283 289 297 265 268 254 192 196 187 183 188
341 336 321 212 180 179 199 241 25 354 197 233 247 268 260 269 199 202 196 214 208 218 224 189 244 29 41 293 288 294 276 287 6 27 266 259 288 324 43 18 275 209 187 188 186
342 336 323 174 174 195 217 228 301 306 247 182 215 213 196 206 221 185 196 208 205 227 213 236 194 67 256 258 246 271 318 5 328 296 245 258 229 168 115 128 130 201 177 184 184
341 330 228 157 181 198 218 228 237 284 248 148 197 213 182 228 224 163 205 196 203 217 217 220 263 113 256 247 273 294 27 330 309 294 356 213 216 139 142 108 102 144 175 175 196
337 316 193 173 313 210 92 181 249 236 216 150 161 126 179 217 124 187 200 222 220 232 263 215 231 238 242 260 7 298 3 295 293 277 267 206 97 278 163 105 103 101 86 190 193
332 291 192 215 245 275 221 261 219 233 154 152 145 179 180 216 187 148 177 247 279 236 214 269 211 270 247 266 264 282 281 258 234 250 263 103 257 289 345 76 57 120 148 26 282
325 225 176 214 191 197 256 207 225 257 140 151 169 170 192 173 158 173 190 197 208 209 223 216 241 225 235 262 247 230 254 253 232 216 142 96 302 131 96 81 53 33 47 60 52
320 173 206 209 261 260 225 231 253 106 187 158 169 176 199 164 170 184 190 204 222 259 278 208 200 213 214 230 263 241 275 280 253 273 93 132 106 19 67 83 57 61 86 70 76
132 189 211 221 221 239 243 232 20 177 122 156 161 183 195 177 201 197 212 219 193 222 264 192 153 90 242 255 244 233 247 357 312 203 241 69 135 207 107 86 67 59 83 65 72
248 194 172 174 190 233 243 266 80 15 311 182 184 201 187 184 209 203 185 210 212 207 255 311 171 193 145 210 231 272 336 258 318 347 287 155 291 89 85 38 53 53 38 118 80
248 208 134 175 191 231 239 152 155 173 240 225 244 192 223 180 214 193 177 116 225 178 228 264 257 152 181 216 211 194 234 241 285 318 316 289 107 78 55 45 5 336 97 12 79
274 197 153 172 210 228 239 150 25 235 182 230 293 255 249 168 208 200 200 166 84 279 206 234 287 241 219 81 319 296 306 297 272 245 256 314 319 76 60 53 37 336 100 70 345
249 105 165 208 226 207 241 216 236 212 195 198 218 255 164 187 203 240 186 68 198 237 332 295 240 254 239 198 201 241 248 252 281 298 282 274 264 138 135 87 359 354 341 57 124
280 156 159 214 267 287 201 211 201 211 281 261 278 210 208 163 245 185 156 121 195 247 24 312 269 278 295 212 256 249 227 251 280 286 302 303 318 183 30 31 49 346 319 303 67
245 300 144 189 225 236 257 214 220 177 236 214 220 211 208 199 195 192 149 136 179 134 218 246 271 276 301 300 259 286 292 290 271 276 275 297 305 318 1 39 25 332 291 313 34
308 328 199 303 199 212 147 225 231 197 203 195 244 217 259 274 243 178 208 252 207 171 240 255 274 283 284 290 288 262 276 286 280 278 279 288 287 26 62 91 78 40 327 326 87
357 269 278 160 211 212 213 226 220 202 227 296 228 178 192 55 27 17 334 328 347 267 283 284 287 291 277 282 294 280 270 289 293 292 308 295 347 50 244 133 9 258 259 289 258
Height
792 790 789 789 788 787 786 785 784 783 781 779 777 775 771 768 764 760 752 752 752 751 747 741 733 732 727 721 720 715 741 759 756 760 761 742 749 741 739 742 746 746 743 755 768
790 788 787 787 786 785 785 784 783 782 781 779 777 774 771 768 763 754 752 752 752 749 745 737 731 725 721 723 720 724 754 758 738 738 750 745 745 743 739 738 748 752 753 761 768
788 786 785 784 784 783 783 782 782 781 780 778 776 773 770 768 760 743 750 752 750 748 745 737 730 722 724 717 722 730 756 740 742 737 736 742 740 732 740 747 742 753 759 764 768
787 784 782 782 782 781 781 781 781 780 779 777 775 773 770 769 767 745 750 751 749 746 742 732 723 727 726 731 724 743 737 736 739 737 738 741 736 738 741 746 736 743 755 760 765
786 783 780 779 779 779 779 779 780 779 778 777 775 772 769 761 748 749 751 750 748 745 738 732 729 727 733 729 729 737 739 731 734 735 733 734 742 743 738 736 736 746 754 758 761
785 781 778 777 777 777 778 778 778 778 778 777 775 773 771 763 746 750 751 749 747 742 736 731 732 730 728 731 736 735 737 730 728 732 731 740 738 738 734 730 739 746 751 755 758
783 779 777 775 775 776 777 777 777 777 777 776 775 774 766 750 748 749 749 747 745 742 734 736 734 731 725 734 729 733 743 730 732 733 737 730 744 742 729 731 740 744 746 750 755
781 778 775 773 773 774 775 776 776 777 776 776 775 775 758 748 749 750 748 745 744 743 740 738 736 729 728 724 730 738 739 754 738 736 734 737 758 730 726 733 737 740 744 746 751
780 776 773 771 772 773 774 775 776 776 776 775 775 769 754 748 749 746 744 741 741 741 740 741 734 729 729 737 741 738 757 759 750 733 736 740 752 727 721 727 732 736 738 743 747
778 774 771 770 771 772 774 775 775 775 775 776 772 769 747 742 740 742 744 743 740 737 739 739 733 738 730 735 768 760 752 751 758 739 739 743 742 725 716 721 729 727 730 739 743
776 772 769 769 770 772 774 774 774 772 767 747 745 742 737 738 744 745 742 743 738 738 752 738 750 749 735 740 743 748 752 755 743 732 746 746 741 729 718 717 721 725 727 730 736
774 770 768 768 769 771 771 760 750 752 757 750 746 743 743 742 741 738 739 744 744 755 741 745 760 731 737 743 748 748 753 751 741 734 742 741 740 726 721 723 721 719 723 724 729
772 769 767 768 769 771 767 757 757 754 745 743 741 741 739 740 737 736 736 735 742 751 744 754 739 734 745 747 752 741 747 756 759 740 728 734 744 735 727 720 719 717 716 719 726
771 768 767 768 772 763 762 758 758 757 752 750 746 739 737 734 739 725 730 731 737 747 739 745 727 744 750 753 743 756 738 746 751 750 758 729 801 742 731 731 723 721 719 719 722
768 766 766 766 765 759 755 757 757 757 771 736 734 728 725 733 726 734 727 729 743 742 741 750 746 751 759 748 737 753 737 748 748 750 740 738 763 755 727 737 729 722 721 715 713
764 763 765 768 765 756 757 757 755 768 768 739 729 738 739 731 729 729 734 729 724 738 737 741 725 735 739 731 736 735 745 742 737 743 764 740 748 780 743 737 731 724 721 721 715
760 760 762 762 754 757 756 753 762 757 717 742 739 731 732 735 736 738 744 749 754 772 764 748 745 733 733 747 733 738 746 769 773 764 788 731 748 754 728 726 727 729 724 723 717
757 757 760 759 758 758 755 754 765 724 724 714 721 727 738 729 733 737 743 749 736 736 741 755 764 737 724 741 747 735 737 760 786 780 776 731 762 755 723 717 719 720 724 725 725
758 759 759 755 757 758 750 752 728 719 711 720 722 736 737 730 729 736 739 739 729 732 750 745 750 726 728 725 729 734 752 721 743 733 758 743 734 720 721 723 726 726 728 735 733
759 752 750 754 756 755 750 747 723 714 711 709 735 725 740 737 743 738 739 723 728 721 717 730 757 729 730 725 725 733 725 751 745 784 784 760 753 752 743 738 731 734 738 739 744
758 741 747 753 755 749 746 727 724 715 717 720 720 727 721 732 733 736 731 725 719 724 721 725 736 743 731 742 739 741 745 738 733 745 771 778 771 733 740 738 741 735 740 741 742
745 737 746 751 754 736 732 725 741 717 714 715 712 710 718 719 731 728 732 725 720 719 740 727 731 748 737 717 717 726 736 737 757 767 753 758 760 731 734 734 741 742 740 744 749
739 736 747 747 748 734 723 728 722 720 716 719 720 710 705 722 740 726 725 726 728 730 736 726 745 758 745 726 724 740 734 730 731 732 759 772 758 732 732 737 738 744 743 745 751
739 741 743 743 729 727 726 731 731 718 718 714 713 712 719 726 723 736 734 734 729 727 745 739 740 744 758 769 751 750 740 736 742 757 751 747 743 732 733 739 745 750 750 749 753
737 721 721 744 736 728 719 722 729 729 718 716 724 718 722 733 731 734 726 738 734 750 742 737 750 737 730 728 737 742 740 738 746 745 763 753 751 739 738 748 754 756 754 754 755
746 736 726 721 721 729 740 730 727 719 721 725 727 717 718 727 726 733 729 733 735 733 737 730 753 745 751 738 736 743 740 737 738 739 741 744 750 732 739 749 755 759 759 759 759
752 745 741 731 725 729 726 727 725 717 724 715 715 721 727 730 723 721 720 723 724 741 739 741 748 753 763 743 743 755 742 740 737 732 739 755 743 743 752 756 757 760 762 763 763